www.pogodaiklimat.ru

Погода и климат >> Архив погоды >> Южная Африка >> Worcester


ПОГОДА в Worcester

  • Прогноз погоды в Worcester
  • Монитор погоды в Worcester
  • Климат города

АРХИВ ПОГОДЫ в Worcester

Время (UTC), дата Ветер
(напр.,м/с)
 
Видим.   Явления Облачность Т
(С)
Тd
(С)
f
(%)
Тe
(С)
Тes
(С)
Комфортность P
(гПа)
Po
(гПа)
Тmin
(С)
Tmax
(С)
R
(мм)
R24
(мм)
S
(см)
03 9.07 Ю 1 н/о н/о +4.6 +3.2 91 +3 +3 855.4 999.8 +4.5 +21.8
06 9.07 штиль 0 н/о н/о +3.9 +2.8 93 +3 +3 855.2 1000.0 +3.7
09 9.07 штиль 0 н/о н/о +12.9 +8.4 74 +13 +13 859.5 999.9 +3.7 +12.9
12 9.07 ЮВ 2 н/о н/о +20.5 +10.4 52 +23 +23 комфорт 861.3 997.8 +3.7 +20.5
15 9.07 З 4 н/о н/о +22.2 +10.8 48 +24 +24 комфорт 861.6 997.2 +20.6 +24.1
18 9.07 штиль 0 н/о н/о +14.3 +8.3 67 +14 +14 858.9 998.4 +14.2 +24.1
21 9.07 штиль 0 н/о н/о +9.3 +7.0 86 +9 +9 856.7 998.7 +9.1 +24.1
00 10.07 ЮВ 2 н/о н/о +7.6 +5.9 89 +6 +6 855.7 998.5 +7.4 +24.1
03 10.07 СЗ 2 н/о н/о +6.4 +5.0 91 +4 +4 855.5 998.9 +6.1 +24.1
06 10.07 СВ 1 н/о н/о +6.1 +4.7 91 +5 +5 857.1 1000.9 +5.8
09 10.07 Ю 1 н/о н/о +13.5 +9.3 76 +14 +14 860.9 1001.1 +5.8 +13.5
12 10.07 З 1 н/о н/о +20.2 +10.1 52 +23 +23 комфорт 862.1 998.8 +5.8 +20.2
15 10.07 штиль 0 н/о н/о +21.9 +12.5 55 +24 +24 комфорт 861.9 997.7 +20.4 +22.7
18 10.07 ЮВ 1 н/о н/о +12.8 +8.9 77 +13 +13 858.2 998.4 +12.8 +22.7
21 10.07 З 1 н/о н/о +10.2 +7.8 85 +10 +10 857.0 998.5 +10.2 +22.7
00 11.07 СЗ 1 н/о н/о +8.0 +6.7 91 +7 +7 855.2 997.7 +7.6 +22.7
03 11.07 СЗ 2 н/о н/о +6.5 +5.3 92 +5 +5 852.5 995.4 +6.5 +22.7
06 11.07 В 2 н/о н/о +5.4 +4.3 93 +3 +3 851.1 994.3 +5.3
09 11.07 В 2 н/о н/о +14.8 +11.2 79 +15 +15 854.6 993.3 +5.3 +14.8
12 11.07 З 10 н/о н/о +25.7 +8.0 32 +26 +26 жарко 856.5 989.8 +5.3 +25.8
15 11.07 З 10 н/о н/о +23.0 +8.5 39 +24 +24 комфорт 853.8 988.2 +23.0 +25.8
18 11.07 З 9 н/о н/о +19.8 +5.6 39 +20 +20 852.7 988.6 +19.7 +25.8
21 11.07 З 10 н/о н/о +20.0 +2.5 31 +20 +20 852.1 987.8 +19.3 +25.8
00 12.07 СЗ 13 н/о н/о +20.0 +2.0 30 +19 +19 850.4 985.9 +18.7 +25.8
03 12.07 СЗ 15 н/о н/о +18.1 +2.1 34 +16 +16 850.0 986.4 +18.1 +25.8
06 12.07 СЗ 14 н/о н/о +16.7 +7.9 56 +15 +15 851.7 989.0 +16.7
09 12.07 З 11 н/о н/о +13.7 +9.5 76 +11 +11 852.7 991.7 +13.6 +16.8
12 12.07 СЗ 7 н/о н/о +12.4 +8.7 78 +10 +10 853.0 992.7 +12.1 +16.8
15 12.07 З 7 н/о н/о +11.6 +7.7 77 +9 +9 852.8 992.9 +11.5 +16.8
18 12.07 СЗ 5 н/о н/о +10.5 +8.4 87 +7 +7 854.0 994.9 +10.5 +16.8 3
21 12.07 СЗ 6 н/о н/о +10.8 +6.1 73 +8 +8 854.6 995.4 +10.5 +16.8
00 13.07 СЗ 6 н/о н/о +10.7 +6.8 77 +8 +8 854.7 995.6 +10.2 +16.8 3
03 13.07 З 7 н/о н/о +10.0 +5.6 74 +6 +6 854.0 995.2 +9.8 +16.8
06 13.07 СЗ 7 н/о н/о +10.0 +5.9 76 +6 +6 855.9 997.4 +9.8 3
09 13.07 З 7 н/о н/о +11.9 +8.0 77 +9 +9 858.0 998.7 +9.6 +11.9
12 13.07 З 7 н/о н/о +12.7 +8.2 74 +10 +10 857.2 997.4 +9.6 +14.1 2
15 13.07 З 6 н/о н/о +10.7 +8.1 84 +8 +8 857.1 998.4 +10.5 +14.4
18 13.07 СЗ 6 н/о н/о +10.3 +6.8 79 +7 +7 858.8 1000.5 +9.6 +14.4 5
21 13.07 ЮЗ 3 н/о н/о +9.3 +7.2 87 +7 +7 859.8 1002.3 +9.1 +14.4
00 14.07 З 3 н/о н/о +9.0 +7.1 88 +6 +6 860.8 1003.6 +9.0 +14.4 5
03 14.07 В 1 н/о н/о +7.6 +6.5 93 +7 +7 861.1 1004.8 +6.9 +14.4
06 14.07 Ю 2 н/о н/о +7.7 +6.4 91 +6 +6 863.2 1007.1 +6.9 5
09 14.07 В 2 н/о н/о +13.0 +7.7 70 +13 +13 867.7 1009.2 +6.9 +13.0
12 14.07 ЮВ 3 н/о н/о +15.0 +6.8 58 +14 +14 868.0 1008.3 +6.9 +15.0
15 14.07 ЮВ 4 н/о н/о +14.7 +5.3 53 +14 +14 868.2 1008.7 +14.6 +15.7
18 14.07 ЮВ 2 н/о н/о +9.7 +5.7 76 +8 +8 867.6 1011.0 +9.7 +15.7
21 14.07 В 3 н/о н/о +9.1 +5.6 79 +7 +7 868.1 1012.0 +8.4 +15.7
00 15.07 В 3 н/о н/о +9.1 +5.6 79 +7 +7 868.1 1012.0 +8.4 +15.7
03 15.07 В 3 н/о н/о +7.0 +5.1 88 +4 +4 866.8 1011.8 +6.7 +15.7
06 15.07 ЮВ 3 н/о н/о +5.0 +3.3 89 +2 +2 866.4 1012.5 +4.8
09 15.07 ЮВ 4 н/о н/о +12.1 +7.0 71 +10 +10 870.2 1012.6 +4.8 +12.1
12 15.07 ЮВ 4 н/о н/о +16.2 +6.1 51 +16 +16 869.5 1009.3 +4.8 +16.2
15 15.07 ЮВ 5 н/о н/о +16.0 +5.1 48 +15 +15 868.1 1007.8 +16.0 +17.1
18 15.07 В 2 н/о н/о +12.0 +5.0 62 +12 +12 867.3 1009.3 +12.0 +17.1 0.2
21 15.07 В 3 н/о н/о +9.7 +4.7 71 +8 +8 865.8 1008.9 +9.4 +17.1
00 16.07 ЮВ 3 н/о н/о +8.7 +4.7 76 +6 +6 864.8 1008.4 +8.4 +17.1 0.2

 

Местоположение метеостанции Worcester (Южная Африка): широта -33.61 долгота 19.47 высота над уровнем моря 270 м.

В архиве по умолчанию представлена погода в Worcester за последнюю неделю. Архивные данные за месяц целиком и за предыдущие месяцы, начиная с января 2011 года, Вы можете получить, выбрав интересующий диапазон дат из раскрывающегося списка и нажав кнопку "Ввод!".


*Определитесь, кто Вы:
робот инопланетянин человек

Внимание! Время в таблицах - всемирное. Для получения местного времени необходимо прибавить поправку, которая в Worcester равна 2 ч.

Смотрите также архив погоды в соседних городах и на ближайших метеорологических станциях:

Погода в Robertson (Южная Африка) (45 км)
Погода в Paarl (Южная Африка) (48 км)
Погода в Malmesbury (Южная Африка) (72 км)
Погода в Tigerhoek (Южная Африка) (72 км)
Погода в Excelsior Ceres (Южная Африка) (72 км)
Погода в Strand (Южная Африка) (82 км)
Погода в Cape Town Airport (Южная Африка) (89 км)
Погода в Cape Town Int Airport (Южная Африка) (89 км)
Погода в Hermanus (Южная Африка) (94 км)
Погода в Ysterplant (Южная Африка) (95 км)

Пояснения к столбцам:

Ветер - указаны скорость ветра в м/с - средняя за 10 мин, порывы в срок и между сроками (в фигурных скобках) и направление, откуда дует ветер: С - северный, СВ - северо-восточный, В - восточный, ЮВ - юго-восточный, Ю - южный, ЮЗ - юго-западный, З - западный, СЗ - северо-западный.
Видимость - горизонтальная дальность видимости в метрах или километрах. При видимости от 1 до 10 км при отсутствии осадков обычно наблюдается дымка, при ухудшении видимости до 1 км и менее - туман. В сухую погоду видимость может ухудшаться дымом, пылью или мглою.
Явления - указаны атмосферные явления, наблюдавшиеся в срок или в последний час перед сроком; фигурными скобками обозначены явления, наблюдавшиеся между сроками (за 1-3 часа до срока); квадратными скобками обозначены град или гололедные отложения с указанием их диаметра в мм.
Облачность - указаны через наклонную черту общая и нижняя облачность в баллах и высота нижней границы облаков в метрах; квадратными скобками обозначены формы облаков: Ci - перистые, Cs - перисто-слоистые, Cc - перисто-кучевые, Ac - высококучевые, As - высокослоистые, Sc - слоисто-кучевые, Ns - слоисто-дождевые, Cu - кучевые, Cb - кучево-дождевые. Подробнее классификацию облаков см. в Атласе облаков (PDF).
T - Температура воздуха - температура, измеренная на высоте 2 м над землей.
Td - Температура точки росы - температура, при понижении до которой содержащийся в воздухе водяной пар достигнет насыщения.
f - Относительная влажность воздуха - влажноcть воздуха, измеренная на высоте 2 м над землей.
Te - Эффективная температура - температура, которую ощущает одетый по сезону человек в тени. Характеристика душности погоды. При расчете учитывается влияние влажности воздуха и скорости ветра на теплоощущения человека.
Tes - Эффективная температура на солнце - температура, которую ощущает человек, с поправкой на солнечный нагрев. Характеристика знойности погоды. Зависит от высоты солнца над горизонтом, облачности и скорости ветра. Ночью, в пасмурную погоду, а также при ветре 12 м/с и более поправка равна нулю.
P - Атмосферное давление - приведенное к уровню моря атмосферное давление.
Po - Атмосферное давление - измеренное на уровне метеостанции атмосферное давление.
Tmin - Минимальная температура - минимум температуры воздуха на высоте 2 м над землей.
Tmax - Максимальная температура - максимум температуры воздуха на высоте 2 м над землей.
R - Количество осадков - Количество выпавших осадков за период времени, мм. При наведении курсора мыши на число - период времени, за который выпало указанное количество осадков.
R24 - Количество осадков - Количество выпавших осадков за 24 часа, мм.
S - Снежный покров - Высота снежного покрова, см. При наведении курсора мыши на число - состояние снежного покрова и степень покрытия местности в баллах.